Location: Lake of the Woods (North-East)
(49.6672°N, 94.8656°W)
Time: 05:26:57
(UTC-05:00)

ISS - All Passes

Search period start: 05 May 2016 00:00
Search period end: 15 May 2016 00:00
Orbit: 402 x 405 km, 51.6° (Epoch: 05 May)

Date Brightness Start Highest point End Pass type
(mag) Time Alt. Az. Time Alt. Az. Time Alt. Az.
05 May - 07:44:35 10° SW 07:47:37 35° SSE 07:50:38 10° E daylight
05 May - 09:20:40 10° W 09:23:56 73° NNW 09:27:13 10° ENE daylight
05 May - 10:57:20 10° WNW 11:00:36 63° N 11:03:51 10° E daylight
05 May - 12:33:52 10° WNW 12:37:04 51° SSW 12:40:14 10° SE daylight
05 May - 14:11:56 10° WSW 14:12:55 11° SW 14:13:54 10° SSW daylight
06 May - 06:52:37 10° SSW 06:55:14 22° SE 06:57:51 10° E daylight
06 May - 08:28:07 10° WSW 08:31:23 87° SSE 08:34:40 10° ENE daylight
06 May - 10:04:45 10° W 10:08:00 58° N 10:11:14 10° E daylight
06 May - 11:41:17 10° WNW 11:44:33 76° SSW 11:47:50 10° ESE daylight
06 May - 13:18:18 10° W 13:20:38 18° SW 13:22:57 10° S daylight
07 May - 06:01:06 10° S 06:02:54 14° SE 06:04:42 10° ESE daylight
07 May - 07:35:37 10° WSW 07:38:51 62° SSE 07:42:06 10° ENE daylight
07 May - 09:12:08 10° W 09:15:23 60° N 09:18:37 10° ENE daylight
07 May - 10:48:43 10° WNW 10:52:01 81° NNE 10:55:17 10° ESE daylight
07 May - 12:25:23 10° W 12:28:16 28° SW 12:31:08 10° SSE daylight
08 May - 06:43:16 10° SW 06:46:22 40° SSE 06:49:28 10° E daylight
08 May - 08:19:29 10° W 08:22:45 68° N 08:26:01 10° ENE daylight
08 May - 09:56:08 10° WNW 09:59:24 66° N 10:02:40 10° E daylight
08 May - 11:32:41 10° WNW 11:35:49 44° SSW 11:38:57 10° SE daylight
09 May - 05:51:09 10° SSW 05:53:56 26° SE 05:56:43 10° E daylight
09 May - 07:26:51 10° WSW 07:30:09 85° NNW 07:33:26 10° ENE daylight
09 May - 09:03:31 10° WNW 09:06:46 59° N 09:10:00 10° E daylight
09 May - 10:40:03 10° WNW 10:43:18 67° SSW 10:46:33 10° ESE daylight
09 May - 12:17:15 10° W 12:19:18 16° SW 12:21:20 10° S daylight
10 May - 04:59:24 10° S 05:01:32 16° SE 05:03:41 10° E visible
10 May - 06:34:18 10° WSW 06:37:33 70° SSE 06:40:49 10° ENE daylight
10 May - 08:10:52 10° W 08:14:06 59° N 08:17:21 10° ENE daylight
10 May - 09:47:26 10° WNW 09:50:43 87° NNE 09:53:59 10° ESE daylight
10 May - 11:24:11 10° W 11:26:55 25° SW 11:29:38 10° SSE daylight
11 May - 05:41:52 10° SW 05:45:00 46° SSE 05:48:10 10° ENE daylight
11 May - 07:18:10 10° W 07:21:26 65° N 07:24:42 10° ENE daylight
11 May - 08:54:49 10° WNW 08:58:05 69° N 09:01:21 10° E daylight
11 May - 10:31:23 10° W 10:34:27 38° SSW 10:37:31 10° SE daylight
12 May - 04:49:36 10° SSW 04:52:30 30° SSE 04:55:25 10° E visible
12 May - 06:25:30 10° WSW 06:28:46 79° NNW 06:32:03 10° ENE daylight
12 May - 08:02:10 10° WNW 08:05:25 60° N 08:08:39 10° E daylight
12 May - 09:38:40 10° WNW 09:41:55 59° SSW 09:45:08 10° SE daylight
12 May - 11:16:10 10° WSW 11:17:50 13° SW 11:19:30 10° SSW daylight
13 May - 03:57:40 10° S 04:00:03 19° SE 04:02:28 10° E visible
13 May - 05:32:52 10° WSW 05:36:08 78° SSE 05:39:25 10° ENE daylight
13 May - 07:09:28 10° W 07:12:43 58° N 07:15:57 10° E daylight
13 May - 08:46:01 10° WNW 08:49:18 85° SSW 08:52:35 10° ESE daylight
13 May - 10:22:52 10° W 10:25:26 21° SW 10:28:00 10° SSE daylight
14 May - 03:06:27 10° SSE 03:07:40 12° SE 03:08:52 10° ESE visible
14 May - 04:40:20 10° SW 04:43:32 53° SSE 04:46:44 10° ENE visible
14 May - 06:16:45 10° W 06:20:00 62° N 06:23:15 10° ENE daylight
14 May - 07:53:21 10° WNW 07:56:38 74° NNE 07:59:54 10° E daylight
14 May - 09:29:58 10° W 09:32:57 33° SSW 09:35:56 10° SE daylight
